Regional Weather Roundup
Issued by NWS

Home | Current Version | Previous Version | Graphics & Text | Print | Product List | Glossary On
Versions: 1 2 3 4 5 6 7 8 9 10 11 12 13 14 15 16 17 18 19 20 21 22 23 24 25 26 27 28 29 30 31 32 33 34 35 36 37 38 39 40 41 42 43 44 45 46 47 48 49 50
000
ASUS43 KIND 241809
RWRIN

WEATHER ROUNDUP FOR INDIANA
NATIONAL WEATHER SERVICE INDIANAPOLIS IN
200 PM EDT WED MAY 24 2017

NOTE: "FAIR" INDICATES FEW OR NO CLOUDS BELOW 12,000 FEET WITH NO
SIGNIFICANT WEATHER AND/OR OBSTRUCTIONS TO VISIBILITY.

* - STATION DOES NOT REPORT WEATHER SUCH AS PRECIPITATION OR FOG.

+ - STATION NOT QUALITY CONTROLLED BY THE NATIONAL WEATHER SERVICE.
    USE DATA WITH CAUTION...ESPECIALLY DEWPOINT AND RELATIVE
    HUMIDITY OBSERVATIONS.

INZ001>003-010>013-019-020-241900-
NORTHWEST INDIANA

CITY           SKY/WX    TMP DP  RH WIND       PRES   REMARKS
GARY /AIRPORT/ CLOUDY    55  52  88 N12       29.55S
KNOX *+        CLOUDY    66  48  52 CALM      29.49F
LA PORTE +     LGT RAIN  64  58  78 NW10      29.51S
6HR MIN TEMP:  54; 6HR MAX TEMP:  66;

MICHIGAN CITY+ CLOUDY    61  55  82 N12       29.52F
MONTICELLO +   CLOUDY    63  56  77 N6        29.49S
6HR MIN TEMP:  57; 6HR MAX TEMP:  63;

RENSSELAER +   CLOUDY    63  55  77 NW6       29.51S
VALPARAISO     CLOUDY    64  56  75 NW9       29.51F
6HR MIN TEMP:  56; 6HR MAX TEMP:  66;


$$

LMZ046-743>745-241900-
SOUTHERN LAKE MICHIGAN

STATION/POSITION TIME  TEMP    WIND        PRES    WAVE
                       AIR SEA DIR/SP/G            HT
                 (UTC) (F)     (DEG/KT/KT) (MB)    (FT)
BURNS HARBOR     1740   53      30/  9/ 11 1000.7F
MICHIGAN CITY    1740   53     360/ 11/ 12   N/A
5NW MICH CITY    1800   52 54   20/ 12/ 16   N/A     3

$$

INZ004-005-014>016-021>024-241900-
NORTH CENTRAL INDIANA

CITY           SKY/WX    TMP DP  RH WIND       PRES   REMARKS
ELKHART        CLOUDY    72  55  56 NE9       29.49F
GOSHEN         CLOUDY    71  49  45 E9        29.49F
6HR MIN TEMP:  57; 6HR MAX TEMP:  72;

LOGANSPORT +   LGT RAIN  63  54  72 N3        29.50S
PERU/GRISSOM   LGT RAIN  63  60  89 W5        29.47F
6HR MIN TEMP:  57; 6HR MAX TEMP:  65; 6HR PCP:  0.02;

ROCHESTER +    DRIZZLE   68  55  64 CALM      29.49F
SOUTH BEND     CLOUDY    69  56  62 E7        29.49F
WARSAW +       CLOUDY    68  52  56 E8        29.49F

$$

INZ006>009-017-018-025>027-241900-
NORTHEAST INDIANA

CITY           SKY/WX    TMP DP  RH WIND       PRES   REMARKS
ANGOLA *+      PTSUNNY   70  61  73 E9        29.49F
AUBURN +       CLOUDY    70  55  60 NE9       29.49F
FORT WAYNE     LGT RAIN  69  59  70 E7        29.48F
6HR MIN TEMP:  58; 6HR MAX TEMP:  69; 6HR PCP: TRACE;

HUNTINGTON +   LGT RAIN  66  58  75 E3        29.48F
KENDALLVILLE + CLOUDY    69  58  66 E8        29.50F

$$

INZ028-029-035-036-043>045-051>053-241900-
WEST CENTRAL INDIANA

CITY           SKY/WX    TMP DP  RH WIND       PRES   REMARKS
CRAWFORDSVL +  LGT RAIN  58  58 100 N7        29.49F
6HR MIN TEMP:  55; 6HR MAX TEMP:  59; 6HR PCP:  0.03;

GREENCASTLE +  CLOUDY    59  57  94 N6        29.49S FOG
LAFAYETTE      LGT RAIN  62  58  86 N5        29.49F
6HR MIN TEMP:  58; 6HR MAX TEMP:  62; 6HR PCP: TRACE;

TERRE HAUTE    LGT RAIN  61  57  87 N7        29.49F FOG
6HR MIN TEMP:  58; 6HR MAX TEMP:  61; 6HR PCP:  0.15;


$$

INZ030>032-037>040-046>048-054>057-064-065-241900-
CENTRAL INDIANA

CITY           SKY/WX    TMP DP  RH WIND       PRES   REMARKS
CP ATTERBURY + LGT RAIN  61  55  82 N9        29.47F
COLUMBUS       LGT RAIN  61  57  88 NW12      29.46F FOG
FRANKFORT +    LGT RAIN  63  60  87 N7        29.51S
6HR MIN TEMP:  59; 6HR MAX TEMP:  64; 6HR PCP:  0.01;

GREENWOOD *+   CLOUDY    60  59  96 NW7       29.48S
6HR MIN TEMP:  60; 6HR MAX TEMP:  64;

INDIANAPOLIS   NOT AVBL
-EAGLE CREEK   RAIN      61  57  87 N6        29.48S FOG
6HR MIN TEMP:  59; 6HR MAX TEMP:  62; 6HR PCP:  0.07;

KOKOMO +       RAIN      62  58  86 NW5       29.50F
6HR MIN TEMP:  57; 6HR MAX TEMP:  65; 6HR PCP:  0.04;

MARION +       RAIN      59  55  88 W5        29.50F
MT COMFORT *+  CLOUDY    59  55  88 NE5       29.48S
SHELBYVILLE    LGT RAIN  63  55  75 N8        29.46F
6HR MIN TEMP:  62; 6HR MAX TEMP:  66; 6HR PCP: TRACE;

ZIONSVILLE +   DRIZZLE   61  56  85 N9        29.49F
6HR MIN TEMP:  56; 6HR MAX TEMP:  61;


$$

INZ033-034-041-042-049-050-058-059-241900-
EAST CENTRAL INDIANA

CITY           SKY/WX    TMP DP  RH WIND       PRES   REMARKS
MUNCIE         LGT RAIN  59  55  87 W8        29.48F FOG
6HR MIN TEMP:  58; 6HR MAX TEMP:  67;

RICHMOND +     RAIN      63  57  82 E6        29.46F

$$

INZ060-061-067>069-081>083-085>088-241900-
SOUTHWEST INDIANA

CITY           SKY/WX    TMP DP  RH WIND       PRES   REMARKS
EVANSVILLE     RAIN      60  56  86 NW12      29.49S FOG
6HR MIN TEMP:  60; 6HR MAX TEMP:  61; 6HR PCP:  0.46;

HUNTINGBURG *+ RAIN      58  57  97 NW6       29.47S
6HR MIN TEMP:  58; 6HR MAX TEMP:  59; 6HR PCP:  0.29;

WASHINGTON +   LGT RAIN  60  58  93 N6        29.47S
6HR MIN TEMP:  58; 6HR MAX TEMP:  60; 6HR PCP:  0.22;


$$

INZ062-063-066-070>080-084-089>092-241900-
SOUTH CENTRAL AND SOUTHEAST INDIANA

CITY           SKY/WX    TMP DP  RH WIND       PRES   REMARKS
BEDFORD +      LGT RAIN  59  55  88 NW3       29.46
BLOOMINGTON    LGT RAIN  60  56  86 CALM      29.47S
6HR MIN TEMP:  58; 6HR MAX TEMP:  61; 6HR PCP:  0.12;

MADISON *+     PTSUNNY   64  57  77 NW3       29.46F
NORTH VERNON + LGT RAIN  63  57  82 N8        29.45F
SEYMOUR +      LGT RAIN  63  61  94 NW6       29.45

$$





USA.gov is the U.S. government's official web portal to all federal, state and local government web resources and services.